This demonstration page uses our WeatherBlox Daily Observations layout. Learn more.

Left ArrowRight Arrow

40.92945, -100.16068

Hourly Observations for February 13, 2021

Temp ( °F °C ) Dew Point ( °F °C ) Humidity (%) Winds ( mph kmh ) Pressure ( in mb ) Visibility ( mi km ) Precip ( " mm )
12:15 am 00:15 Cloudy with Light Snow -3 -19.5 -9 -22.5 77 77 E 6 9 30.67 1039 7 11.26538 N/A
12:35 am 00:35 Cloudy with Light Snow -3 -19.5 -9 -22.7 76 76 E 6 9 30.67 1039 4 6.43736 N/A
12:55 am 00:55 Cloudy with Light Snow -3 -19.5 -9 -22.7 76 76 ENE 5 7 30.67 1039 4 6.43736 N/A
1:15 am 01:15 Cloudy with Light Snow -3 -19.5 -9 -22.7 76 76 E 3 6 30.68 1039 4 6.43736 N/A
1:35 am 01:35 Cloudy with Light Snow -3 -19.5 -9 -22.5 77 77 NE 5 7 30.68 1039 4 6.43736 N/A
1:55 am 01:55 Cloudy with Light Snow -3 -19.5 -9 -22.6 77 77 NE 3 6 30.68 1039 4 6.43736 N/A
2:15 am 02:15 Cloudy with Light Snow -3 -19.5 -9 -22.5 77 77 NE 3 6 30.67 1039 4 6.43736 N/A
2:35 am 02:35 Cloudy with Light Snow -3 -19.5 -9 -22.5 77 77 NE 3 6 30.67 1039 5 8.0467 N/A
2:55 am 02:55 Cloudy with Light Snow -3 -19.5 -9 -22.5 77 77 NE 3 6 30.67 1039 4 6.43736 N/A
3:15 am 03:15 Cloudy with Light Snow -3 -19.5 -9 -22.5 77 77 ENE 3 6 30.66 1038 7 11.26538 N/A
3:35 am 03:35 Cloudy with Light Snow -3 -19.5 -9 -22.6 77 77 N N/A 30.66 1038 10 16.0934 N/A
3:55 am 03:55 Cloudy with Light Snow -3 -19.5 -9 -22.6 77 77 N N/A 30.66 1038 5 8.0467 N/A
4:15 am 04:15 Cloudy with Light Snow -3 -19.5 -9 -22.5 77 77 N N/A 30.66 1038 2.5 4.02335 N/A
4:35 am 04:35 Cloudy with Light Snow -3 -19.5 -9 -22.5 77 77 NNE 3 6 30.67 1039 3 4.82802 N/A
4:55 am 04:55 Cloudy with Light Snow -3 -19.4 -8 -22.4 77 77 NE 3 6 30.67 1039 7 11.26538 N/A
5:15 am 05:15 Cloudy with Haze -3 -19.3 -8 -22.4 77 77 N 3 6 30.68 1039 4 6.43736 N/A
5:35 am 05:35 Cloudy with Haze -3 -19.3 -8 -22.3 77 77 N N/A 30.67 1039 5 8.0467 N/A
5:55 am 05:55 Mostly Cloudy -4 -20 -9 -23 77 77 NE 3 6 30.67 1038 7 11.26538 N/A
6:15 am 06:15 Partly Cloudy -5 -20.8 -10 -23.4 80 80 N N/A 30.68 1039 10 16.0934 N/A
6:35 am 06:35 Partly Cloudy with Scattered Snow Showers -6 -21.2 -11 -23.8 80 80 N N/A 30.68 1039 10 16.0934 N/A
6:55 am 06:55 Clear -7 -21.4 -10 -23.4 84 84 N N/A 30.68 1039 10 16.0934 N/A
7:15 am 07:15 Clear -11 -24 -15 -26.1 83 83 N N/A 30.71 1040 10 16.0934 N/A
7:35 am 07:35 Sunny -10 -23.2 -14 -25.3 83 83 N N/A 30.71 1040 10 16.0934 N/A
7:55 am 07:55 Sunny -14 -25.3 -18 -27.9 79 79 N 3 6 30.74 1041 10 16.0934 N/A
8:15 am 08:15 Sunny -15 -26.1 -20 -28.7 79 79 NNW 5 7 30.76 1042 10 16.0934 N/A
8:35 am 08:35 Sunny -14 -25.7 -19 -28.4 78 78 NW 7 11 30.75 1041 10 16.0934 N/A
8:55 am 08:55 Sunny -13 -25 -18 -27.7 78 78 NW 6 9 30.75 1041 10 16.0934 N/A
9:15 am 09:15 Partly Cloudy -11 -23.7 -16 -26.5 78 78 NW 3 6 30.74 1041 10 16.0934 N/A
9:35 am 09:35 Mostly Cloudy -8 -22.4 -13 -25.2 78 78 NW 5 7 30.72 1040 7 11.26538 N/A
9:55 am 09:55 Cloudy -5 -20.8 -10 -23.4 80 80 WNW 5 7 30.71 1040 10 16.0934 N/A
10:15 am 10:15 Cloudy -5 -20.5 -10 -23.1 80 80 N N/A 30.7 1040 10 16.0934 N/A
10:35 am 10:35 Cloudy with Light Snow -4 -20 -9 -22.6 80 80 N N/A 30.7 1039 7 11.26538 N/A
10:55 am 10:55 Partly Cloudy with Scattered Snow Showers -3 -19.5 -8 -22.4 78 78 N N/A 30.69 1039 10 16.0934 N/A
11:15 am 11:15 Mostly Cloudy with Light Snow -2 -19 -8 -22 77 77 N N/A 30.68 1039 7 11.26538 N/A
11:35 am 11:35 Cloudy -1 -18.4 -8 -22 74 74 WNW 3 6 30.68 1039 10 16.0934 N/A
11:55 am 11:55 Mostly Cloudy -1 -18.1 -9 -22.5 69 69 N N/A 30.67 1039 10 16.0934 N/A
12:15 pm 12:15 Mostly Cloudy N/A -8 -22.3 67 67 NNW 3 6 30.66 1038 10 16.0934 N/A
12:35 pm 12:35 Cloudy 1 -17.3 -8 -22.2 66 66 N N/A 30.64 1038 10 16.0934 N/A
12:55 pm 12:55 Cloudy 1 -17.5 -9 -22.5 65 65 N N/A 30.65 1038 10 16.0934 N/A
1:15 pm 13:15 Cloudy 1 -17.2 -8 -22.4 64 64 N 5 7 30.62 1037 10 16.0934 N/A
1:35 pm 13:35 Mostly Cloudy 1 -17.2 -8 -22.3 65 65 NNE 5 7 30.61 1037 10 16.0934 N/A
1:55 pm 13:55 Mostly Cloudy 1 -17 -8 -22 65 65 NE 3 6 30.6 1036 10 16.0934 N/A
2:15 pm 14:15 Cloudy 2 -16.7 -8 -22 64 64 N N/A 30.61 1036 10 16.0934 N/A
2:35 pm 14:35 Cloudy 2 -16.6 -7 -21.9 64 64 N 3 6 30.6 1036 10 16.0934 N/A
2:55 pm 14:55 Cloudy 2 -16.7 -7 -21.7 65 65 NE 3 6 30.58 1035 10 16.0934 N/A
3:15 pm 15:15 Cloudy 2 -16.5 -7 -21.6 65 65 NE 5 7 30.58 1036 10 16.0934 N/A
3:35 pm 15:35 Cloudy 3 -16.3 -7 -21.6 64 64 N N/A 30.58 1036 10 16.0934 N/A
3:55 pm 15:55 Mostly Cloudy 3 -16.2 -7 -21.4 64 64 NE 3 6 30.58 1036 10 16.0934 N/A
4:15 pm 16:15 Cloudy with Haze 3 -16.3 -5 -20.4 71 71 ENE 6 9 30.58 1036 3 4.82802 N/A
4:35 pm 16:35 Partly Cloudy 2 -16.5 -5 -20.5 71 71 ENE 7 11 30.58 1036 10 16.0934 N/A
4:55 pm 16:55 Mostly Cloudy 2 -16.6 -5 -20.6 71 71 ENE 7 11 30.6 1036 10 16.0934 N/A
5:15 pm 17:15 Mostly Cloudy 2 -16.8 -5 -20.6 73 73 ENE 7 11 30.61 1037 7 11.26538 N/A
5:35 pm 17:35 Mostly Cloudy 2 -16.8 -6 -21 70 70 E 7 11 30.61 1037 10 16.0934 N/A
5:55 pm 17:55 Cloudy 2 -16.8 -5 -20.5 73 73 ENE 8 13 30.61 1037 10 16.0934 N/A
6:15 pm 18:15 Cloudy 2 -16.8 -6 -21 70 70 NE 10 17 30.6 1036 10 16.0934 N/A
6:35 pm 18:35 Cloudy 2 -16.8 -6 -21.2 69 69 NE 12 19 30.6 1036 10 16.0934 N/A
6:55 pm 18:55 Cloudy 1 -17 -7 -21.5 68 68 NNE 14 22 30.59 1036 10 16.0934 N/A
7:15 pm 19:15 Cloudy 1 -17 -7 -21.8 67 67 NNE 13 20 30.61 1037 10 16.0934 N/A
7:35 pm 19:35 Cloudy 1 -17 -7 -21.6 68 68 NE 10 17 30.62 1037 10 16.0934 N/A
7:55 pm 19:55 Cloudy with Light Snow 1 -17.1 -6 -21.1 71 71 NE 9 15 30.63 1037 5 8.0467 N/A
8:15 pm 20:15 Cloudy with Haze 1 -17.3 -6 -21 73 73 NNE 10 17 30.64 1038 4 6.43736 N/A
8:35 pm 20:35 Cloudy 1 -17.5 -5 -20.7 76 76 NE 7 11 30.66 1038 7 11.26538 N/A
8:55 pm 20:55 Cloudy with Haze N/A -5 -20.6 78 78 NE 10 17 30.66 1038 4 6.43736 N/A
9:15 pm 21:15 Cloudy with Light Snow N/A -5 -20.5 79 79 NNE 7 11 30.68 1039 5 8.0467 N/A
9:35 pm 21:35 Cloudy with Light Snow N/A -5 -20.5 79 79 NNE 7 11 30.69 1039 5 8.0467 N/A
9:55 pm 21:55 Cloudy with Light Snow N/A -5 -20.5 80 80 NNE 7 11 30.69 1039 4 6.43736 N/A
10:15 pm 22:15 Cloudy with Light Snow N/A -5 -20.6 80 80 NE 8 13 30.7 1040 4 6.43736 N/A
10:35 pm 22:35 Cloudy with Light Snow N/A -5 -20.5 81 81 NNE 8 13 30.7 1040 1.75 2.816345 N/A
10:55 pm 22:55 Cloudy with Light Snow N/A -5 -20.5 81 81 NE 7 11 30.7 1040 3 4.82802 0.01 0.254
11:15 pm 23:15 Cloudy with Light Snow -1 -18.2 -5 -20.8 80 80 NNE 8 13 30.71 1040 4 6.43736 N/A
11:35 pm 23:35 Cloudy with Light Snow -1 -18.5 -7 -21.5 77 77 NNE 10 17 30.71 1040 5 8.0467 N/A
11:55 pm 23:55 Cloudy with Light Snow -1 -18.5 -7 -21.5 77 77 NE 10 17 30.71 1040 7 11.26538 N/A

Powered by AerisWeather